Regional Weather Roundup
Issued by NWS

Home | Current Version | Previous Version | Text Only | Print | Product List | Glossary Off
Versions: 1 2 3 4 5 6 7 8 9 10 11 12 13 14 15 16 17 18 19 20 21 22 23 24 25 26 27 28 29 30 31 32 33 34 35 36 37 38 39 40 41 42 43 44 45 46 47 48 49 50

000
ASUS43 KFSD 162202
RWRSD

WEATHER ROUNDUP FOR SOUTH DAKOTA
NATIONAL WEATHER SERVICE SIOUX FALLS SD
400 PM CST MON JAN 16 2017

NOTE: "FAIR" INDICATES FEW OR NO CLOUDS BELOW 12,000 FEET WITH NO
SIGNIFICANT WEATHER AND/OR OBSTRUCTIONS TO VISIBILITY.


SDZ001>005-009-010-012>017-162300-
NORTHWEST AND NORTH CENTRAL SOUTH DAKOTA

CITY           SKY/WX    TMP DP  RH WIND       PRES   REMARKS
BUFFALO          N/A     25  16  68 NW15      30.01R WCI  13
FAITH            N/A     23  17  78 NW14      30.04S WCI  11
MOBRIDGE       CLOUDY    21  10  62 NW3       30.04R
$$

SDZ012>016-024>037-041>051-057-063-072>074-162300-
SOUTHWEST AND SOUTH CENTRAL SOUTH DAKOTA

CITY           SKY/WX    TMP DP  RH WIND       PRES   REMARKS
RAPID CTY ARPT SUNNY     33  19  56 N18       30.04S WCI  22
PIERRE         SUNNY     22  14  71 NW13      30.05S WCI  10
CUSTER         SUNNY     40  10  29 N8        30.00S
ELLSWORTH AFB  SUNNY     33  18  53 N20       30.04R WCI  21
PHILIP         SUNNY     29  20  69 W7        30.07R WCI  22
PINE RIDGE     SUNNY     30  21  69 W7        30.06S WCI  23
SPEARFISH      FAIR      34  16  47 NW13      30.07S WCI  25
WINNER         FAIR      30  15  53 NW15      30.04R WCI  19
$$

SDZ004>011-016>023-039-040-162300-
NORTHEAST SOUTH DAKOTA

CITY           SKY/WX    TMP DP  RH WIND       PRES   REMARKS
ABERDEEN       CLOUDY    20   8  60 N7        30.04R WCI  11
WATERTOWN      CLOUDY    24  19  81 N7        29.99R WCI  16
SISSETON         N/A     23  19  85 SE3       30.04R
$$

SDZ017-020-022-023-036>040-048>070-162300-
SOUTHEAST SOUTH DAKOTA

CITY           SKY/WX    TMP DP  RH WIND       PRES   REMARKS
SIOUX FALLS    FRZ RAIN  32  28  85 N5        29.97F WCI  27
HURON          CLOUDY    20  12  71 NW6       30.04R WCI  12
CHAMBERLAIN    CLOUDY    25  15  65 W13       30.04S WCI  14
MITCHELL       CLOUDY    28  21  75 NW13      30.03S WCI  17
YANKTON        CLOUDY    30  27  86 CALM      29.98S
$$

ABBREVIATIONS USED IN REMARKS
   TC - TEMPERATURE IN CELSIUS
  WCI - WIND CHILL INDEX
   HX - HEAT INDEX
  VSB - VISIBILITY




USA.gov is the U.S. government's official web portal to all federal, state and local government web resources and services.